TimeCST,TemperatureF,Dew PointF,Humidity,Sea Level PressureIn,VisibilityMPH,Wind Direction,Wind SpeedMPH,Gust SpeedMPH,PrecipitationIn,Events,Conditions,WindDirDegrees,DateUTC
12:53 AM,19.0,15.1,85,30.22,10.0,WNW,4.6,-,N/A,,Clear,290,2013-01-25 06:53:00
1:53 AM,17.1,12.9,84,30.22,8.0,Calm,Calm,-,N/A,,Clear,0,2013-01-25 07:53:00
2:53 AM,28.0,19.0,69,30.22,10.0,West,9.2,-,N/A,,Scattered Clouds,280,2013-01-25 08:53:00
3:53 AM,24.1,18.0,77,30.24,10.0,West,9.2,-,N/A,,Clear,270,2013-01-25 09:53:00
4:53 AM,19.9,16.0,85,30.24,10.0,West,5.8,-,N/A,,Clear,280,2013-01-25 10:53:00
5:53 AM,18.0,12.9,81,30.25,10.0,NNW,3.5,-,N/A,,Clear,330,2013-01-25 11:53:00
6:53 AM,19.9,16.0,85,30.26,10.0,NNW,3.5,-,N/A,,Clear,330,2013-01-25 12:53:00
7:53 AM,16.0,14.0,92,30.27,10.0,Calm,Calm,-,N/A,,Clear,0,2013-01-25 13:53:00
8:53 AM,19.9,16.0,85,30.30,10.0,NW,3.5,-,N/A,,Clear,320,2013-01-25 14:53:00
9:53 AM,30.0,21.0,69,30.30,10.0,WNW,3.5,-,N/A,,Clear,300,2013-01-25 15:53:00
10:53 AM,37.9,21.9,53,30.27,10.0,West,3.5,-,N/A,,Clear,280,2013-01-25 16:53:00
11:53 AM,43.0,21.9,43,30.26,10.0,WSW,4.6,-,N/A,,Clear,250,2013-01-25 17:53:00
12:53 PM,51.1,21.9,32,30.22,10.0,SW,11.5,-,N/A,,Clear,220,2013-01-25 18:53:00
1:53 PM,53.1,21.0,29,30.18,10.0,SSW,12.7,-,N/A,,Clear,210,2013-01-25 19:53:00
2:53 PM,54.0,23.0,30,30.14,10.0,SW,12.7,-,N/A,,Clear,230,2013-01-25 20:53:00
3:53 PM,55.9,26.1,32,30.13,10.0,WSW,9.2,-,N/A,,Clear,250,2013-01-25 21:53:00
4:53 PM,53.1,25.0,34,30.14,10.0,SW,9.2,-,N/A,,Clear,220,2013-01-25 22:53:00
5:53 PM,48.0,24.1,39,30.16,10.0,SSW,6.9,-,N/A,,Clear,210,2013-01-25 23:53:00
6:53 PM,39.0,23.0,53,30.18,10.0,South,4.6,-,N/A,,Clear,180,2013-01-26 00:53:00
7:53 PM,34.0,21.9,61,30.19,10.0,South,4.6,-,N/A,,Clear,180,2013-01-26 01:53:00
8:53 PM,33.1,21.0,61,30.18,10.0,Calm,Calm,-,N/A,,Clear,0,2013-01-26 02:53:00
9:53 PM,30.9,19.9,64,30.17,10.0,NNE,3.5,-,N/A,,Clear,20,2013-01-26 03:53:00
10:53 PM,36.0,23.0,59,30.14,10.0,East,3.5,-,N/A,,Clear,80,2013-01-26 04:53:00
11:53 PM,35.1,21.9,59,30.13,10.0,Calm,Calm,-,N/A,,Clear,0,2013-01-26 05:53:00